EW2142 Weather Reports


Display with metric or nautical units.
time (UTC)temp
F
wind
direction
speed
MPH
gust
MPH
rain 1hr
in
rain 24hr
in
rain mn
in
humidity
%
barometer
mb
20260507115503 62 307 1.0 8.0 0.00 0.00 0.00 34 1015.7
20260507115003 63 307 1.0 8.0 0.00 0.00 0.00 31 1015.6
20260507114503 64 298 0.0 4.0 0.00 0.00 0.00 34 1015.6
20260507114002 64 302 0.0 4.0 0.00 0.00 0.00 33 1015.6
20260507113503 63 317 0.0 2.0 0.00 0.00 0.00 33 1015.6
20260507113003 63 305 0.0 4.0 0.00 0.00 0.00 35 1015.6
20260507112503 62 262 0.0 6.0 0.00 0.00 0.00 38 1015.7
20260507112024 61 236 1.0 6.0 0.00 0.00 0.00 38 1015.7
20260507111503 61 286 1.0 5.0 0.00 0.00 0.00 36 1015.7
20260507111003 61 289 1.0 5.0 0.00 0.00 0.00 38 1015.7
20260507110503 62 268 1.0 4.0 0.00 0.00 0.00 40 1015.6
20260507110003 61 279 0.0 3.0 0.00 0.00 0.00 41 1015.7
20260507105503 60 278 0.0 3.0 0.00 0.00 0.00 42 1015.6
20260507105002 60 297 1.0 5.0 0.00 0.00 0.00 42 1015.6
20260507104503 59 302 1.0 6.0 0.00 0.00 0.00 41 1015.7
20260507104003 60 305 1.0 6.0 0.00 0.00 0.00 42 1015.7
20260507103523 60 305 1.0 5.0 0.00 0.00 0.00 41 1015.7
20260507103003 60 303 0.0 4.0 0.00 0.00 0.00 41 1015.7
20260507102503 60 314 0.0 2.0 0.00 0.00 0.00 42 1015.6
20260507102003 59 306 0.0 4.0 0.00 0.00 0.00 42 1015.6
20260507101503 59 308 1.0 4.0 0.00 0.00 0.00 42 1015.5
20260507101024 59 314 0.0 4.0 0.00 0.00 0.00 44 1015.5
20260507100503 58 309 1.0 7.0 0.00 0.00 0.00 46 1015.5
20260507100024 58 311 1.0 7.0 0.00 0.00 0.00 43 1015.5
20260507095503 58 324 0.0 5.0 0.00 0.00 0.00 45 1015.4
20260507095003 58 326 0.0 3.0 0.00 0.00 0.00 49 1015.4
20260507094503 58 282 0.0 3.0 0.00 0.00 0.00 48 1015.3
20260507094003 58 285 0.0 2.0 0.00 0.00 0.00 48 1015.2
20260507093503 58 301 1.0 4.0 0.00 0.00 0.00 49 1015.2
20260507093024 57 314 1.0 4.0 0.00 0.00 0.00 51 1015.2
20260507092503 56 311 1.0 5.0 0.00 0.00 0.00 55 1015.1
20260507092003 56 308 1.0 4.0 0.00 0.00 0.00 53 1015.1
20260507091503 56 307 0.0 4.0 0.00 0.00 0.00 55 1015.2
20260507091003 55 309 0.0 4.0 0.00 0.00 0.00 56 1015.2
20260507090503 55 307 0.0 4.0 0.00 0.00 0.00 58 1015.1
20260507090003 55 309 1.0 7.0 0.00 0.00 0.00 56 1015.2
20260507085502 55 309 1.0 7.0 0.00 0.00 0.00 56 1015.2
20260507085002 56 271 0.0 1.0 0.00 0.00 0.00 58 1015.2
20260507084503 55 309 0.0 5.0 0.00 0.00 0.00 58 1015.2
20260507084003 55 309 0.0 5.0 0.00 0.00 0.00 59 1015.2
20260507083502 55 303 0.0 2.0 0.00 0.00 0.00 58 1015.2
20260507083004 54 319 0.0 5.0 0.00 0.00 0.00 61 1015.2
20260507082503 54 317 0.0 5.0 0.00 0.00 0.00 61 1015.2
20260507082024 54 311 0.0 3.0 0.00 0.00 0.00 61 1015.2
20260507081503 54 312 0.0 3.0 0.00 0.00 0.00 60 1015.1
20260507081003 54 294 0.0 2.0 0.00 0.00 0.00 63 1015.0
20260507080503 54 306 0.0 4.0 0.00 0.00 0.00 62 1015.0
20260507080003 53 311 0.0 4.0 0.00 0.00 0.00 63 1015.0
20260507075503 53 306 0.0 3.0 0.00 0.00 0.00 63 1014.9
20260507075003 53 308 0.0 3.0 0.00 0.00 0.00 61 1014.9
20260507074502 53 311 0.0 2.0 0.00 0.00 0.00 63 1014.9
20260507074003 52 296 0.0 2.0 0.00 0.00 0.00 63 1014.8
20260507073503 52 297 0.0 2.0 0.00 0.00 0.00 63 1014.8
20260507073003 51 305 0.0 3.0 0.00 0.00 0.00 61 1014.8
20260507072503 50 306 1.0 4.0 0.00 0.00 0.00 60 1014.8
20260507072003 50 314 1.0 4.0 0.00 0.00 0.00 62 1014.8
20260507071524 50 319 0.0 3.0 0.00 0.00 0.00 63 1014.8
20260507071003 50 318 0.0 1.0 0.00 0.00 0.00 65 1014.7
20260507070503 49 285 0.0 2.0 0.00 0.00 0.00 66 1014.7
20260507070007 48 310 0.0 3.0 0.00 0.00 0.00 66 1014.7
20260507065503 48 301 0.0 3.0 0.00 0.00 0.00 66 1014.7
20260507065002 48 188 0.0 2.0 0.00 0.00 0.00 65 1014.7
20260507064502 47 305 0.0 2.0 0.00 0.00 0.00 65 1014.7
20260507064003 46 312 0.0 3.0 0.00 0.00 0.00 64 1014.7
20260507063503 46 308 0.0 3.0 0.00 0.00 0.00 63 1014.6
20260507063002 44 247 0.0 2.0 0.00 0.00 0.00 59 1014.6
20260507062503 42 214 0.0 1.0 0.00 0.00 0.00 55 1014.5
20260507062003 41 0 0.0 0.0 0.00 0.00 0.00 55 1014.5
20260507061503 41 0 0.0 0.0 0.00 0.00 0.00 54 1014.5
20260507061003 40 0 0.0 0.0 0.00 0.00 0.00 53 1014.5
20260507060503 40 0 0.0 0.0 0.00 0.00 0.00 51 1014.5
20260507060025 39 0 0.0 0.0 0.00 0.00 0.00 49 1014.4
20260507055503 38 0 0.0 0.0 0.00 0.00 0.00 46 1014.4
20260507055003 38 0 0.0 0.0 0.00 0.00 0.00 41 1014.3
20260507054502 38 0 0.0 0.0 0.00 0.00 0.00 37 1014.4
20260507054024 37 0 0.0 0.0 0.00 0.00 0.00 33 1014.4
20260507053503 36 0 0.0 0.0 0.00 0.00 0.00 29 1014.3
20260507053003 36 0 0.0 0.0 0.00 0.00 0.00 26 1014.3
20260507052503 35 0 0.0 0.0 0.00 0.00 0.00 19 1014.2
20260507052003 35 0 0.0 0.0 0.00 0.00 0.00 16 1014.2
20260507051503 34 0 0.0 0.0 0.00 0.00 0.00 16 1014.1
20260507051003 34 0 0.0 0.0 0.00 0.00 0.00 17 1014.1
20260507050503 33 0 0.0 0.0 0.00 0.00 0.00 16 1014.0
20260507050003 33 0 0.0 0.0 0.00 0.00 0.00 17 1014.0
20260507045502 33 0 0.0 0.0 0.00 0.00 0.00 17 1014.0
20260507045002 32 0 0.0 0.0 0.00 0.00 0.00 19 1013.9
20260507044503 32 0 0.0 0.0 0.00 0.00 0.00 20 1013.9
20260507044003 32 0 0.0 0.0 0.00 0.00 0.00 21 1013.8
20260507043523 32 0 0.0 0.0 0.00 0.00 0.00 21 1013.9
20260507043003 32 0 0.0 0.0 0.00 0.00 0.00 21 1013.8
20260507042524 32 0 0.0 0.0 0.00 0.00 0.00 21 1013.8
20260507042003 31 0 0.0 0.0 0.00 0.00 0.00 21 1013.8
20260507041524 31 0 0.0 0.0 0.00 0.00 0.00 23 1013.8
20260507041024 31 0 0.0 0.0 0.00 0.00 0.00 25 1013.7
20260507040503 31 0 0.0 0.0 0.00 0.00 0.00 27 1013.7
20260507040003 31 0 0.0 0.0 0.00 0.00 0.00 29 1013.7
20260507035503 31 0 0.0 0.0 0.00 0.00 0.00 29 1013.7
20260507035002 31 0 0.0 0.0 0.00 0.00 0.00 28 1013.6
20260507034503 31 0 0.0 0.0 0.00 0.00 0.00 28 1013.5
20260507034003 31 0 0.0 0.0 0.00 0.00 0.00 30 1013.6
20260507033524 30 0 0.0 0.0 0.00 0.00 0.00 32 1013.6
20260507033003 30 0 0.0 0.0 0.00 0.00 0.00 33 1013.6
20260507032503 30 0 0.0 0.0 0.00 0.00 0.00 35 1013.5
20260507032024 30 0 0.0 0.0 0.00 0.00 0.00 36 1013.6
20260507031503 30 0 0.0 0.0 0.00 0.00 0.00 37 1013.6
20260507031003 30 0 0.0 0.0 0.00 0.00 0.00 37 1013.6
20260507030503 30 0 0.0 0.0 0.00 0.00 0.00 38 1013.5
20260507030003 31 0 0.0 0.0 0.00 0.00 0.00 39 1013.5
20260507025503 31 0 0.0 0.0 0.00 0.00 0.00 39 1013.5
20260507025003 31 0 0.0 0.0 0.00 0.00 0.00 39 1013.5
20260507024503 31 0 0.0 0.0 0.00 0.00 0.00 40 1013.4
20260507024023 31 0 0.0 0.0 0.00 0.00 0.00 41 1013.4
20260507023503 31 0 0.0 0.0 0.00 0.00 0.00 41 1013.4
20260507023003 31 0 0.0 0.0 0.00 0.00 0.00 41 1013.3
20260507022503 31 0 0.0 0.0 0.00 0.00 0.00 41 1013.3
20260507022024 32 0 0.0 0.0 0.00 0.00 0.00 42 1013.2
20260507021524 32 0 0.0 0.0 0.00 0.00 0.00 41 1013.2
20260507021003 32 0 0.0 0.0 0.00 0.00 0.00 40 1013.2
20260507020503 32 0 0.0 0.0 0.00 0.00 0.00 40 1013.2
20260507020003 32 0 0.0 0.0 0.00 0.00 0.00 42 1013.1
20260507015503 32 0 0.0 0.0 0.00 0.00 0.00 44 1013.1
20260507015003 32 0 0.0 0.0 0.00 0.00 0.00 45 1013.1
20260507014503 32 0 0.0 0.0 0.00 0.00 0.00 47 1013.1
20260507014002 32 0 0.0 0.0 0.00 0.00 0.00 49 1013.0
20260507013503 32 0 0.0 0.0 0.00 0.00 0.00 49 1013.0
20260507013024 32 0 0.0 0.0 0.00 0.00 0.00 51 1013.0
20260507012503 32 0 0.0 0.0 0.00 0.00 0.00 51 1013.0
20260507012003 33 0 0.0 0.0 0.00 0.00 0.00 52 1012.9
20260507011524 33 0 0.0 0.0 0.00 0.00 0.00 52 1012.9
20260507010503 33 0 0.0 0.0 0.00 0.00 0.00 54 1013.0
20260507010024 33 0 0.0 0.0 0.00 0.00 0.00 53 1012.9
20260507005503 33 0 0.0 0.0 0.00 0.00 0.00 55 1012.9
20260507005003 33 0 0.0 0.0 0.00 0.00 0.00 56 1012.9
20260507004503 33 0 0.0 0.0 0.00 0.00 0.00 56 1012.9
20260507004003 33 0 0.0 0.0 0.00 0.00 0.00 56 1012.9
20260507003503 34 0 0.0 0.0 0.00 0.00 0.00 58 1012.8
20260507003003 34 0 0.0 0.0 0.00 0.00 0.00 59 1012.8
20260507002503 34 0 0.0 0.0 0.00 0.00 0.00 60 1012.8
20260507002003 34 0 0.0 0.0 0.00 0.00 0.00 60 1012.8
20260507001503 34 0 0.0 0.0 0.00 0.00 0.00 61 1012.8
20260507001003 34 0 0.0 0.0 0.00 0.00 0.00 62 1012.7
20260507000503 34 0 0.0 0.0 0.00 0.00 0.00 63 1012.7
20260507000004 34 0 0.0 0.0 0.00 0.00 0.00 63 1012.7
20260506235503 34 0 0.0 0.0 0.00 0.00 0.00 64 1012.6
20260506235003 34 0 0.0 0.0 0.00 0.00 0.00 65 1012.7
20260506234502 35 0 0.0 0.0 0.00 0.00 0.00 65 1012.6
20260506234003 35 0 0.0 0.0 0.00 0.00 0.00 66 1012.7
20260506233524 35 0 0.0 0.0 0.00 0.00 0.00 67 1012.7
20260506233003 35 0 0.0 0.0 0.00 0.00 0.00 67 1012.7
20260506232503 35 0 0.0 0.0 0.00 0.00 0.00 68 1012.6
20260506232003 35 0 0.0 0.0 0.00 0.00 0.00 69 1012.6
20260506231503 36 0 0.0 0.0 0.00 0.00 0.00 69 1012.6
20260506231003 36 0 0.0 0.0 0.00 0.00 0.00 69 1012.5
20260506230503 36 0 0.0 0.0 0.00 0.00 0.00 69 1012.5
20260506230003 36 0 0.0 0.0 0.00 0.00 0.00 69 1012.5
20260506225503 36 0 0.0 0.0 0.00 0.00 0.00 69 1012.3
20260506225024 36 0 0.0 0.0 0.00 0.00 0.00 70 1012.3
20260506224502 36 0 0.0 0.0 0.00 0.00 0.00 70 1012.2
20260506224003 37 0 0.0 0.0 0.00 0.00 0.00 70 1012.2
20260506223502 37 0 0.0 0.0 0.00 0.00 0.00 70 1012.2
20260506223003 37 0 0.0 0.0 0.00 0.00 0.00 70 1012.2
20260506222503 37 0 0.0 0.0 0.00 0.00 0.00 70 1012.2
20260506222003 37 0 0.0 0.0 0.00 0.00 0.00 70 1012.1
20260506221504 38 0 0.0 0.0 0.00 0.00 0.00 70 1012.1
20260506221003 38 0 0.0 0.0 0.00 0.00 0.00 70 1012.1
20260506220503 38 0 0.0 0.0 0.00 0.00 0.00 70 1012.0
20260506220005 38 0 0.0 0.0 0.00 0.00 0.00 70 1012.1
20260506215503 38 0 0.0 0.0 0.00 0.00 0.00 70 1012.0
20260506215023 38 0 0.0 0.0 0.00 0.00 0.00 70 1012.0
20260506214503 38 0 0.0 0.0 0.00 0.00 0.00 70 1011.9
20260506214003 38 0 0.0 0.0 0.00 0.00 0.00 70 1011.9
20260506213524 38 0 0.0 0.0 0.00 0.00 0.00 71 1011.9
20260506213003 38 0 0.0 0.0 0.00 0.00 0.00 71 1011.8
20260506212503 38 0 0.0 0.0 0.00 0.00 0.00 70 1011.8
20260506212024 38 0 0.0 0.0 0.00 0.00 0.00 70 1011.7
20260506211503 38 0 0.0 0.0 0.00 0.00 0.00 70 1011.7
20260506211003 39 0 0.0 0.0 0.00 0.00 0.00 70 1011.7
20260506210503 39 0 0.0 0.0 0.00 0.00 0.00 70 1011.6
20260506210003 39 0 0.0 0.0 0.00 0.00 0.00 69 1011.6
20260506205503 39 0 0.0 0.0 0.00 0.00 0.00 69 1011.5
20260506205024 40 0 0.0 0.0 0.00 0.00 0.00 69 1011.5
20260506204502 40 0 0.0 0.0 0.00 0.00 0.00 68 1011.5
20260506204003 40 0 0.0 0.0 0.00 0.00 0.00 67 1011.6
20260506203503 40 0 0.0 0.0 0.00 0.00 0.00 67 1011.5
20260506203003 41 0 0.0 0.0 0.00 0.00 0.00 66 1011.4
20260506202503 41 0 0.0 0.0 0.00 0.00 0.00 66 1011.4
20260506202003 42 0 0.0 0.0 0.00 0.00 0.00 64 1011.4
20260506201503 42 0 0.0 0.0 0.00 0.00 0.00 64 1011.5
20260506201024 42 0 0.0 0.0 0.00 0.00 0.00 63 1011.4
20260506200503 43 0 0.0 0.0 0.00 0.00 0.00 61 1011.4
20260506200024 43 0 0.0 0.0 0.00 0.00 0.00 61 1011.4
20260506195524 44 0 0.0 0.0 0.00 0.00 0.00 60 1011.3
20260506195003 44 0 0.0 0.0 0.00 0.00 0.00 59 1011.3
20260506194503 44 0 0.0 0.0 0.00 0.00 0.00 59 1011.3
20260506194002 45 0 0.0 0.0 0.00 0.00 0.00 58 1011.3
20260506193524 45 0 0.0 0.0 0.00 0.00 0.00 58 1011.3
20260506193024 46 0 0.0 0.0 0.00 0.00 0.00 57 1011.3
20260506192503 46 0 0.0 0.0 0.00 0.00 0.00 56 1011.2
20260506192003 47 0 0.0 0.0 0.00 0.00 0.00 55 1011.2
20260506191503 47 0 0.0 0.0 0.00 0.00 0.00 55 1011.2
20260506191003 48 0 0.0 0.0 0.00 0.00 0.00 54 1011.2
20260506190524 48 0 0.0 0.0 0.00 0.00 0.00 53 1011.1
20260506190003 48 298 0.0 1.0 0.00 0.00 0.00 51 1011.0
20260506185524 49 298 0.0 1.0 0.00 0.00 0.00 51 1011.0
20260506185003 49 0 0.0 0.0 0.00 0.00 0.00 52 1011.0
20260506184503 50 255 0.0 1.0 0.00 0.00 0.00 50 1010.9
20260506184002 50 285 0.0 1.0 0.00 0.00 0.00 49 1010.9
20260506183503 50 296 0.0 1.0 0.00 0.00 0.00 48 1010.9
20260506183003 51 0 0.0 0.0 0.00 0.00 0.00 49 1010.8
20260506182503 52 0 0.0 0.0 0.00 0.00 0.00 47 1010.8
20260506182002 52 0 0.0 0.0 0.00 0.00 0.00 45 1010.9
20260506181524 53 0 0.0 1.0 0.00 0.00 0.00 44 1010.8
20260506181003 54 0 0.0 1.0 0.00 0.00 0.00 41 1010.8
20260506180524 55 352 0.0 1.0 0.00 0.00 0.00 39 1010.7
20260506180004 57 318 0.0 2.0 0.00 0.00 0.00 37 1010.7
20260506175503 57 305 0.0 3.0 0.00 0.00 0.00 36 1010.7
20260506175024 58 303 0.0 3.0 0.00 0.00 0.00 35 1010.7
20260506174503 58 0 0.0 1.0 0.00 0.00 0.00 35 1010.6
20260506174002 59 303 0.0 1.0 0.00 0.00 0.00 36 1010.5
20260506173524 58 317 0.0 4.0 0.00 0.00 0.00 35 1010.6
20260506173003 58 314 0.0 4.0 0.00 0.00 0.00 34 1010.5
20260506172503 58 285 0.0 1.0 0.00 0.00 0.00 36 1010.4
20260506172003 58 304 0.0 3.0 0.00 0.00 0.00 35 1010.4
20260506171503 59 310 0.0 3.0 0.00 0.00 0.00 34 1010.4
20260506171003 59 306 0.0 4.0 0.00 0.00 0.00 32 1010.4
20260506170524 59 306 0.0 4.0 0.00 0.00 0.00 32 1010.4
20260506170003 60 307 0.0 2.0 0.00 0.00 0.00 30 1010.4
20260506165503 60 306 0.0 2.0 0.00 0.00 0.00 31 1010.5
20260506165003 59 305 1.0 4.0 0.00 0.00 0.00 33 1010.4
20260506164503 59 305 1.0 4.0 0.00 0.00 0.00 32 1010.4
20260506164002 62 311 0.0 3.0 0.00 0.00 0.00 31 1010.4
20260506163524 62 316 0.0 3.0 0.00 0.00 0.00 31 1010.4
20260506163003 61 304 0.0 3.0 0.00 0.00 0.00 32 1010.4
20260506162505 61 295 0.0 2.0 0.00 0.00 0.00 32 1010.4
20260506162003 62 289 0.0 3.0 0.00 0.00 0.00 29 1010.4
20260506161503 62 285 0.0 3.0 0.00 0.00 0.00 31 1010.4
20260506161002 62 295 0.0 3.0 0.00 0.00 0.00 29 1010.4
20260506160503 61 309 1.0 5.0 0.00 0.00 0.00 31 1010.4
20260506160003 60 311 1.0 5.0 0.00 0.00 0.00 29 1010.4
20260506155503 63 314 0.0 2.0 0.00 0.00 0.00 27 1010.4
20260506155003 63 184 0.0 2.0 0.00 0.00 0.00 28 1010.4
20260506154503 63 171 0.0 2.0 0.00 0.00 0.00 28 1010.4
20260506154002 63 190 0.0 2.0 0.00 0.00 0.00 27 1010.4
20260506153503 62 256 0.0 2.0 0.00 0.00 0.00 31 1010.4
20260506153003 62 227 0.0 1.0 0.00 0.00 0.00 28 1010.4
20260506152502 62 305 0.0 5.0 0.00 0.00 0.00 29 1010.4
20260506152003 61 308 0.0 5.0 0.00 0.00 0.00 30 1010.4
20260506151503 61 307 1.0 5.0 0.00 0.00 0.00 30 1010.5
20260506151003 60 305 1.0 5.0 0.00 0.00 0.00 29 1010.5
20260506150503 61 303 1.0 3.0 0.00 0.00 0.00 28 1010.5
20260506150003 61 266 0.0 3.0 0.00 0.00 0.00 29 1010.4
20260506145503 61 264 0.0 3.0 0.00 0.00 0.00 27 1010.5
20260506145024 61 305 1.0 5.0 0.00 0.00 0.00 29 1010.4
20260506144524 61 305 1.0 5.0 0.00 0.00 0.00 28 1010.4
20260506144024 62 186 0.0 5.0 0.00 0.00 0.00 28 1010.4
20260506143503 61 168 0.0 5.0 0.00 0.00 0.00 28 1010.5
20260506143002 62 144 0.0 3.0 0.00 0.00 0.00 28 1010.5
20260506142503 61 313 1.0 6.0 0.00 0.00 0.00 28 1010.5
20260506142024 60 311 1.0 6.0 0.00 0.00 0.00 27 1010.5
20260506141503 61 304 1.0 6.0 0.00 0.00 0.00 27 1010.5
20260506141003 61 308 1.0 5.0 0.00 0.00 0.00 28 1010.7
20260506140503 62 306 0.0 4.0 0.00 0.00 0.00 25 1010.6
20260506140003 62 287 0.0 3.0 0.00 0.00 0.00 25 1010.6
20260506135503 61 308 1.0 5.0 0.00 0.00 0.00 28 1010.6
20260506135003 61 306 1.0 5.0 0.00 0.00 0.00 24 1010.7
20260506134503 61 244 1.0 4.0 0.00 0.00 0.00 26 1010.6
20260506134002 60 250 1.0 6.0 0.00 0.00 0.00 26 1010.6
20260506133503 60 283 1.0 7.0 0.00 0.00 0.00 25 1010.6
20260506133024 61 294 0.0 7.0 0.00 0.00 0.00 25 1010.6
20260506132502 61 272 0.0 4.0 0.00 0.00 0.00 26 1010.6
20260506132003 60 265 1.0 6.0 0.00 0.00 0.00 25 1010.7
20260506131524 60 263 1.0 6.0 0.00 0.00 0.00 27 1010.7
20260506131003 60 266 1.0 4.0 0.00 0.00 0.00 28 1010.6
20260506130503 60 257 1.0 4.0 0.00 0.00 0.00 27 1010.6
20260506130003 60 258 1.0 2.0 0.00 0.00 0.00 26 1010.6
20260506125503 62 239 0.0 3.0 0.00 0.00 0.00 28 1010.7
20260506125024 60 277 0.0 4.0 0.00 0.00 0.00 30 1010.7
20260506124503 60 299 1.0 4.0 0.00 0.00 0.00 29 1010.8
20260506124003 59 308 1.0 9.0 0.00 0.00 0.00 32 1010.8
20260506123503 58 311 2.0 9.0 0.00 0.00 0.00 29 1010.8
20260506123003 58 308 1.0 9.0 0.00 0.00 0.00 30 1010.8
20260506122503 58 310 2.0 8.0 0.00 0.00 0.00 31 1010.8
20260506122003 59 310 1.0 6.0 0.00 0.00 0.00 29 1010.8
20260506121503 60 298 1.0 4.0 0.00 0.00 0.00 28 1010.9
20260506121003 59 291 1.0 5.0 0.00 0.00 0.00 30 1010.8
20260506120503 59 269 1.0 5.0 0.00 0.00 0.00 28 1010.9
20260506120003 60 282 1.0 5.0 0.00 0.00 0.00 30 1010.9